Regional Weather Roundup
Issued by NWS

Home | Current Version | Previous Version | Graphics & Text | Print | Product List | Glossary On
Versions: 1 2 3 4 5 6 7 8 9 10 11 12 13 14 15 16 17 18 19 20 21 22 23 24 25 26 27 28 29 30 31 32 33 34 35 36 37 38 39 40 41 42 43 44 45 46 47 48 49 50
000
ASUS43 KIND 202309
RWRIN

WEATHER ROUNDUP FOR INDIANA
NATIONAL WEATHER SERVICE INDIANAPOLIS IN
700 PM EDT SUN APR 20 2014

NOTE: "FAIR" INDICATES FEW OR NO CLOUDS BELOW 12,000 FEET WITH NO
SIGNIFICANT WEATHER AND/OR OBSTRUCTIONS TO VISIBILITY.

* - STATION DOES NOT REPORT WEATHER SUCH AS PRECIPITATION OR FOG.

+ - STATION NOT QUALITY CONTROLLED BY THE NATIONAL WEATHER SERVICE.
    USE DATA WITH CAUTION...ESPECIALLY DEWPOINT AND RELATIVE
    HUMIDITY OBSERVATIONS.

INZ001>003-010>013-019-020-210000-
NORTHWEST INDIANA

CITY           SKY/WX    TMP DP  RH WIND       PRES   REMARKS
GARY /AIRPORT/ PTSUNNY   77  36  22 S7        30.09S
LA PORTE +     MOSUNNY   73  34  23 SW7       30.11F
MICHIGAN CITY+ PTSUNNY   73  32  21 S7        30.10S
MONTICELLO +   SUNNY     73  37  27 S3        30.11F
RENSSELAER +   MOSUNNY   73  32  21 SE6       30.10F
VALPARAISO     MOSUNNY   74  35  24 S8        30.10F

$$

LMZ046-743>745-210000-
SOUTHERN LAKE MICHIGAN

STATION/POSITION TIME  TEMP WIND        PRES
                       AIR  DIR/SP/G
                 (UTC) (F)  (DEG/KT/KT) (MB)
MICHIGAN CITY    2300   58   40/ 11/ 13   N/A

$$

INZ004-005-014>016-021>024-210000-
NORTH CENTRAL INDIANA

CITY           SKY/WX    TMP DP  RH WIND       PRES   REMARKS
GOSHEN         MOSUNNY   73  32  22 W7        30.12F
LOGANSPORT +   SUNNY     72  23  16 CALM      30.12F
PERU/GRISSOM   SUNNY     75  35  23 S6        30.11F
ROCHESTER +    MOSUNNY   73  30  20 SW6       30.13S
SOUTH BEND     MOSUNNY   74  32  21 S6        30.12F
WARSAW +       MOSUNNY   72  32  23 S5        30.12F

$$

INZ006>009-017-018-025>027-210000-
NORTHEAST INDIANA

CITY           SKY/WX    TMP DP  RH WIND       PRES   REMARKS
ANGOLA *+      SUNNY     72  36  26 SW6       30.13F
AUBURN +       MOSUNNY   72  30  21 SW6       30.13F
FORT WAYNE     PTSUNNY   73  33  23 SW10      30.14F

$$

INZ028-029-035-036-043>045-051>053-210000-
WEST CENTRAL INDIANA

CITY           SKY/WX    TMP DP  RH WIND       PRES   REMARKS
GREENCASTLE +  SUNNY     73  37  27 CALM      30.12F
LAFAYETTE      SUNNY     73  35  25 SE5       30.10F
TERRE HAUTE    SUNNY     73  40  30 SE3       30.12F

$$

INZ030>032-037>040-046>048-054>057-064-065-210000-
CENTRAL INDIANA

CITY           SKY/WX    TMP DP  RH WIND       PRES   REMARKS
CP ATTERBURY + PTSUNNY   73  39  29 SE10      30.12F
COLUMBUS       SUNNY     73  37  27 S8        30.12F
FRANKFORT +    MOSUNNY   75  23  14 CALM      30.13
INDIANAPOLIS   MOSUNNY   73  35  25 SW5       30.12F
-EAGLE CREEK   MOSUNNY   73  32  22 CALM      30.12F
KOKOMO *+        N/A     73  32  21 SE5       30.11F
MARION +       MOSUNNY   73  32  22 S6        30.13F
MT COMFORT *+  MOSUNNY   73  37  27 S5        30.13F
SHELBYVILLE    PTSUNNY   76  37  24 SE5       30.12F
ZIONSVILLE +   MOSUNNY   74  24  15 CALM      30.13F

$$

INZ033-034-041-042-049-050-058-059-210000-
EAST CENTRAL INDIANA

CITY           SKY/WX    TMP DP  RH WIND       PRES   REMARKS
MUNCIE         MOSUNNY   72  35  25 SW5       30.13F

$$

INZ060-061-067>069-081>083-085>088-210000-
SOUTHWEST INDIANA

CITY           SKY/WX    TMP DP  RH WIND       PRES   REMARKS
EVANSVILLE     SUNNY     76  34  21 W3        30.12F
HUNTINGBURG *+ SUNNY     73  43  33 W3        30.11F
WASHINGTON +   SUNNY     75  36  24 SW3       30.11F

$$

INZ062-063-066-070>080-084-089>092-210000-
SOUTH CENTRAL AND SOUTHEAST INDIANA

CITY           SKY/WX    TMP DP  RH WIND       PRES   REMARKS
BLOOMINGTON    MOSUNNY   75  27  17 CALM      30.12F
NORTH VERNON + CLOUDY    75  32  20 S3        30.13F

$$




USA.gov is the U.S. government's official web portal to all federal, state and local government web resources and services.